Theta_e
272 272 272 272 271 271 271 271 271 271 271 271 271 272 272 272 272 273 273 273 273 274 274 274 275 276 276 276 276 277 277 278 279 280 281 281 282 282 283 283 284 285 286 287 288 289 289 290 290 291 291 292 293 294 295 296 297 299 301 304 307 307 308 309 310 311 312 312 313 313 314 314 313 313
272 271 271 271 270 270 270 270 271 271 271 271 271 271 271 272 272 272 272 273 273 273 274 274 275 275 276 276 276 276 276 277 278 279 279 280 281 282 282 283 283 284 285 286 287 288 288 289 290 290 291 291 292 293 294 294 295 297 298 301 303 305 306 307 308 308 309 311 312 312 313 314 314 314
272 271 271 271 270 270 270 270 270 271 271 271 271 271 271 272 272 272 272 272 272 273 273 273 274 274 274 275 275 275 275 276 277 277 278 279 280 281 281 282 283 283 284 285 286 287 288 288 289 290 290 291 291 292 293 294 295 296 296 297 299 301 303 304 305 306 307 308 309 310 311 312 313 314
272 271 271 271 270 270 269 269 270 270 271 271 271 271 271 271 271 272 272 272 272 272 273 273 273 273 273 274 274 274 274 275 275 276 277 278 279 280 281 281 282 283 283 284 285 286 287 288 288 289 289 290 291 291 292 293 294 295 296 296 296 298 299 300 301 303 304 305 306 308 309 311 312 312
272 272 271 271 271 270 269 269 269 270 270 270 271 271 271 271 271 271 271 271 271 272 272 272 272 272 273 273 273 273 274 274 274 275 276 277 278 279 280 281 281 282 283 284 284 285 286 287 288 288 289 289 290 290 291 292 293 295 295 295 295 295 296 296 297 298 300 302 303 304 306 307 310 310
272 272 272 272 271 271 270 270 269 269 270 270 270 270 270 270 271 270 270 270 270 271 271 271 272 272 272 272 272 273 273 273 273 274 275 276 277 278 279 280 281 281 282 283 283 284 285 286 287 287 288 288 289 289 290 291 292 293 293 294 295 295 294 295 295 296 297 298 299 302 303 303 305 308
273 273 273 273 272 271 271 271 270 270 270 270 270 270 270 270 270 270 270 270 270 270 270 271 271 271 272 272 272 272 272 272 272 273 274 275 275 277 278 279 280 281 281 282 283 283 284 285 285 286 287 288 288 288 289 290 291 292 292 293 294 294 294 294 295 295 295 295 296 299 301 301 302 304
274 273 273 273 273 272 272 272 271 271 271 270 270 270 270 270 270 270 270 270 270 270 270 270 270 271 271 271 272 272 272 272 272 273 274 274 275 276 277 278 279 280 281 281 282 282 283 284 284 285 286 286 287 288 288 289 290 290 291 291 292 293 293 294 294 294 295 295 295 296 297 298 299 301
274 274 274 274 273 272 272 273 272 272 272 271 271 270 270 270 270 269 269 270 270 270 270 270 270 270 270 271 271 271 271 272 273 274 274 274 274 275 276 277 278 279 280 281 281 282 282 283 284 284 285 285 286 286 287 288 289 289 290 291 291 292 292 293 293 294 294 295 295 295 295 296 296 298
275 274 274 274 273 273 273 273 273 273 272 272 272 271 271 271 270 269 269 269 269 269 269 270 270 270 270 270 271 271 272 272 273 273 273 273 274 275 275 276 277 278 279 280 281 281 282 283 283 284 284 285 285 285 286 287 287 288 289 289 290 291 291 292 292 293 293 294 294 295 295 295 295 295
275 275 274 274 274 274 274 273 273 273 273 272 272 272 272 271 270 269 269 269 269 269 269 269 269 270 270 270 271 271 272 272 272 272 273 273 274 275 275 276 277 277 278 279 280 281 282 282 283 283 283 284 284 285 285 285 286 287 287 288 289 289 290 291 291 292 292 293 293 294 294 294 294 294
275 275 275 275 275 274 274 273 273 273 273 272 273 272 272 271 271 270 269 269 269 269 269 269 269 269 269 270 270 271 271 271 272 272 273 273 274 275 275 276 277 278 278 279 280 280 281 282 282 282 283 283 284 284 285 285 285 285 286 286 287 288 288 289 290 291 291 292 292 293 293 294 294 294
275 275 275 275 275 275 274 273 273 273 272 272 273 273 272 272 271 270 270 269 269 269 269 269 269 269 269 269 270 270 271 271 272 272 272 273 274 275 275 276 277 278 279 280 280 280 280 281 281 282 282 283 283 284 284 285 285 285 285 285 285 286 287 288 288 289 290 291 291 292 292 293 293 294
275 275 276 276 276 275 275 274 273 273 272 272 273 273 272 272 271 270 270 270 269 270 269 269 269 269 269 270 270 271 271 272 272 272 272 273 274 274 275 277 278 279 280 281 281 280 281 281 281 281 282 282 283 283 284 284 285 285 285 285 285 285 285 286 287 287 288 289 290 291 292 292 292 292
275 276 276 276 276 275 275 274 274 273 273 272 272 272 272 271 271 270 270 270 270 270 269 270 270 269 270 270 270 271 272 272 272 272 273 273 273 274 275 276 278 279 280 281 281 282 282 282 281 281 282 282 282 283 283 284 284 284 285 285 285 285 285 285 285 286 287 287 288 289 290 291 292 292
275 276 275 275 275 275 275 275 274 274 273 272 272 271 271 271 271 271 271 271 270 270 270 270 270 270 271 271 271 271 272 272 272 273 273 273 273 274 275 276 278 279 280 281 281 281 282 282 282 282 282 282 282 282 283 283 283 284 284 285 285 285 285 285 285 285 285 286 286 287 288 289 290 291
275 275 275 275 275 276 275 275 275 274 274 274 273 272 271 270 271 271 272 272 272 272 272 272 272 272 272 272 272 272 272 272 272 273 273 273 274 275 276 277 279 280 279 280 280 281 281 282 282 282 282 282 282 282 282 283 283 283 284 284 284 284 285 285 285 285 285 285 285 286 287 287 288 289
275 275 276 276 276 276 276 275 275 275 275 274 274 273 272 272 272 272 272 272 273 273 273 273 273 273 273 273 273 273 272 272 273 273 274 275 275 276 277 277 278 279 279 279 279 280 281 282 282 282 283 283 283 283 283 283 283 283 283 283 284 284 284 284 284 285 285 285 285 285 285 286 287 287
276 276 277 276 276 276 276 276 276 275 275 275 275 274 274 274 274 273 273 273 273 273 273 273 273 273 273 273 273 273 273 273 274 274 275 275 276 277 277 277 278 280 280 279 279 280 281 282 282 282 283 283 283 283 283 283 283 283 283 283 283 283 284 284 284 284 284 285 285 285 285 285 286 286
277 277 277 276 276 276 276 276 276 276 276 276 275 275 275 275 274 274 274 274 274 273 273 273 273 273 273 274 274 274 274 274 275 275 275 276 277 277 277 278 279 280 280 280 280 280 281 282 282 283 283 283 283 283 283 283 283 283 283 283 283 283 283 284 284 284 284 284 284 285 285 285 285 285
277 277 277 276 276 276 276 276 276 276 276 276 276 276 276 275 275 275 275 275 274 274 274 274 274 274 274 274 274 275 275 275 276 276 276 277 278 277 277 278 279 280 280 281 281 281 282 282 282 283 283 283 283 283 283 283 283 283 283 283 283 283 283 283 283 284 284 284 284 284 284 285 285 285
277 277 277 276 276 276 276 276 276 276 276 275 275 275 275 275 275 275 275 275 275 275 275 274 274 274 274 274 275 275 276 276 276 276 277 278 278 277 278 278 279 280 281 281 281 281 282 282 283 283 283 284 284 284 284 284 284 284 284 283 283 283 283 283 283 284 284 284 284 284 284 284 284 285
277 277 277 276 276 276 276 276 276 276 276 276 276 276 276 276 276 276 276 276 276 276 275 275 275 275 276 276 276 276 276 277 276 277 277 278 277 278 278 279 279 280 280 281 281 282 282 283 283 283 284 284 284 284 285 285 284 284 284 284 284 284 284 284 284 284 284 283 284 284 284 284 284 284
276 277 276 276 276 276 275 276 276 276 276 276 276 277 277 277 277 277 277 277 277 277 277 276 276 276 276 277 277 277 277 277 277 277 277 278 278 278 279 279 279 280 280 281 281 282 282 283 283 283 283 284 284 285 285 285 285 285 285 285 285 285 285 285 285 284 284 284 284 284 284 284 284 285
276 276 276 276 276 276 276 276 276 276 276 276 277 277 277 277 277 277 277 277 277 277 277 277 277 277 277 277 277 277 278 278 278 278 278 279 279 279 279 280 280 280 280 280 281 281 282 282 282 282 283 283 284 284 284 284 284 284 285 285 285 285 286 286 286 286 285 285 285 285 285 285 285 285
276 276 276 276 276 275 275 276 276 276 276 277 277 277 277 277 277 277 277 277 277 278 278 278 278 278 277 277 277 278 278 278 278 279 279 280 280 280 280 280 280 281 281 281 281 281 282 282 282 282 283 283 284 284 284 284 284 284 284 284 285 285 286 286 286 286 286 286 286 286 286 286 286 285
276 276 276 276 275 275 275 276 276 276 276 277 277 277 277 278 278 278 278 278 278 278 278 278 278 278 278 278 277 278 279 279 279 279 280 280 280 280 280 281 281 281 281 281 281 282 282 282 282 282 283 283 283 284 283 283 283 283 284 284 284 285 285 286 286 286 286 286 286 286 286 286 287 287
276 276 276 275 275 276 276 276 276 276 276 276 276 277 277 277 277 278 278 278 278 278 278 278 278 278 278 278 278 278 278 279 279 279 279 280 280 280 280 281 281 281 281 281 281 282 282 282 282 282 283 283 283 283 283 283 283 283 283 283 284 284 284 285 285 286 286 286 286 286 286 286 286 287
275 275 275 275 276 276 276 276 276 276 276 276 276 277 277 277 277 277 277 277 278 278 278 278 278 278 278 278 278 278 278 279 279 279 279 279 280 280 280 281 281 281 281 281 281 281 281 282 282 282 282 283 283 283 282 282 282 283 283 283 283 284 284 284 285 285 285 286 286 286 286 286 286 286
274 274 275 275 275 275 275 275 275 275 275 276 276 276 276 277 277 277 277 278 277 278 278 278 278 278 279 279 279 279 278 279 279 279 279 279 280 280 280 281 281 281 281 281 281 281 281 281 282 282 282 282 282 282 282 282 282 283 283 283 283 283 284 284 285 285 285 285 285 285 286 286 286 286
274 275 275 275 275 275 275 275 275 275 275 275 276 276 276 277 277 277 278 278 278 278 278 278 278 278 279 279 279 279 279 279 279 280 280 280 280 280 280 281 281 281 281 281 281 281 281 281 281 281 281 282 282 282 282 282 282 282 283 283 283 283 283 284 284 285 285 285 285 285 285 286 286 286
275 275 274 274 274 274 274 275 275 275 275 275 276 276 276 276 276 277 277 277 277 278 278 278 278 278 278 278 278 278 279 279 280 280 280 280 280 280 280 281 281 281 281 281 281 281 281 281 281 281 281 282 282 282 282 282 282 282 283 283 283 283 283 284 284 284 284 284 284 285 285 285 285 286
274 274 274 274 274 274 274 274 274 274 275 275 275 275 275 275 275 275 276 276 276 277 277 277 277 278 278 278 278 279 279 279 280 280 280 279 279 279 280 280 281 281 281 281 281 281 281 281 281 281 281 282 282 282 282 282 282 282 282 283 283 283 283 283 283 283 283 283 284 284 285 285 285 285
274 274 274 274 274 274 274 274 274 274 275 275 275 275 275 275 275 276 276 275 276 276 276 276 277 277 277 278 278 278 279 279 279 279 279 279 279 279 279 280 280 281 281 281 281 281 281 281 281 281 281 282 282 281 281 281 282 282 282 283 283 283 284 284 283 283 283 283 284 284 284 284 285 285
273 273 273 273 273 273 273 273 273 274 274 275 275 275 275 275 275 276 276 276 276 276 276 276 277 277 277 278 278 278 279 279 279 279 279 279 279 279 279 279 279 280 281 281 281 281 281 281 281 281 281 281 282 281 281 281 281 281 282 282 283 283 284 284 283 283 283 284 284 284 284 284 284 284
273 272 273 273 273 273 273 273 273 273 274 274 274 274 274 274 275 275 276 276 276 276 276 277 277 277 278 278 279 279 279 279 279 279 279 279 279 279 279 279 279 279 280 281 281 281 281 281 280 281 281 281 281 281 281 281 281 281 282 282 282 283 284 284 284 283 284 284 284 284 283 284 284 284
272 272 272 272 273 273 273 273 273 273 274 274 274 274 274 274 274 275 275 276 276 276 276 276 277 277 278 278 278 279 279 279 279 279 279 279 279 279 279 279 279 279 280 280 280 281 281 280 280 281 281 281 281 282 281 281 281 282 282 282 282 283 283 284 284 284 283 283 283 283 283 283 283 283
272 272 272 273 273 273 273 273 273 273 273 273 273 273 274 274 274 275 275 276 276 276 276 277 277 277 278 278 278 278 278 278 278 278 278 278 279 279 280 280 279 280 280 280 280 280 280 280 281 281 281 281 281 281 281 281 281 282 282 282 282 283 283 283 283 283 283 283 283 283 283 283 283 283
272 272 273 273 273 273 273 273 273 272 272 272 273 273 273 274 274 274 275 275 276 276 276 277 277 278 278 278 278 278 277 277 277 277 277 278 279 279 279 279 279 280 280 280 280 280 280 281 281 281 281 281 281 282 282 282 282 282 282 282 282 283 283 283 283 283 283 283 282 282 282 282 282 282
272 272 272 272 273 273 273 272 272 272 272 273 273 273 273 273 274 274 274 275 275 276 276 277 277 277 278 278 279 278 277 276 277 278 278 279 279 279 279 280 280 280 280 280 280 280 280 281 281 282 281 281 282 282 282 282 282 282 283 283 283 283 283 283 283 283 283 283 282 282 282 282 282 282
271 272 272 272 272 272 272 272 272 272 272 272 273 273 273 273 273 274 274 275 275 275 276 277 277 276 277 278 279 279 277 277 278 279 280 280 280 279 279 280 280 280 280 280 280 280 281 281 282 282 282 282 282 282 282 282 282 282 282 283 283 283 283 283 283 283 283 283 282 282 282 282 282 282
270 270 271 271 271 272 272 272 272 272 272 272 272 273 273 273 273 274 274 274 275 275 276 277 277 277 277 278 279 279 279 278 279 280 280 280 280 280 279 280 280 280 280 280 280 281 282 282 282 282 282 282 282 282 282 282 282 282 282 282 282 282 282 282 282 282 283 282 282 282 282 282 281 281
269 269 270 270 271 271 271 272 272 272 272 272 272 273 273 273 273 273 274 274 275 275 276 276 277 277 278 278 279 279 279 279 280 280 280 280 280 280 280 281 281 281 281 281 281 282 282 282 282 282 282 282 282 282 282 282 282 282 282 282 282 282 282 282 282 282 282 282 282 282 282 281 281 281
268 269 269 270 270 271 271 272 272 272 272 272 272 272 273 273 273 273 274 274 274 275 275 275 276 277 277 278 279 279 279 279 280 280 280 281 281 281 281 281 281 281 281 281 281 282 282 282 282 282 282 282 282 282 282 282 282 282 282 281 282 282 282 282 282 282 282 282 282 282 282 281 281 281
268 268 269 270 270 271 271 272 272 272 272 272 272 272 272 272 272 273 273 273 274 274 274 275 275 276 276 277 278 279 279 279 279 280 280 281 281 281 281 281 281 281 281 281 281 281 281 281 282 282 282 282 282 281 281 281 282 282 281 281 281 281 281 281 281 281 281 281 281 281 281 281 280 281
Wind_Speed
37 36 36 34 33 32 30 28 26 23 22 22 21 20 19 18 18 16 15 15 11 9 11 13 12 11 13 16 18 21 22 23 25 26 25 25 25 24 23 23 23 22 21 22 23 22 22 21 20 20 20 20 19 20 21 23 26 27 28 30 32 28 22 15 12 13 15 16 17 19 25 31 32 30
32 32 32 31 29 28 25 23 21 20 20 20 20 19 18 18 19 17 17 18 14 10 9 10 10 11 13 17 20 21 23 24 24 25 25 25 26 26 26 25 25 24 24 24 24 22 22 21 21 21 21 21 20 20 21 23 25 26 28 31 33 33 31 27 22 17 13 13 15 14 17 24 30 32
27 28 28 28 28 27 25 22 19 18 18 18 18 18 17 17 18 17 18 21 17 12 11 11 11 13 17 21 23 24 26 26 25 26 26 26 26 27 28 28 27 27 27 27 26 24 23 22 22 22 22 21 20 20 21 21 22 23 25 27 31 34 34 33 31 28 22 17 15 14 14 17 22 28
22 23 23 24 25 26 26 25 23 20 19 18 18 18 18 17 17 16 18 23 21 15 14 14 13 15 19 23 25 27 28 28 26 27 27 27 27 28 30 30 29 29 29 29 28 26 25 24 24 23 23 23 22 21 21 21 20 21 22 24 28 32 33 33 32 31 29 26 21 16 15 16 19 21
19 20 20 20 21 23 26 27 27 25 24 23 22 21 21 21 21 20 22 26 27 22 18 17 17 17 18 20 22 23 26 28 28 27 26 27 28 29 29 30 30 30 30 30 30 29 27 26 26 25 24 24 24 24 23 22 20 21 22 23 25 26 27 28 29 29 28 29 28 24 19 17 18 19
18 18 19 18 18 19 22 24 26 27 27 27 26 26 25 25 25 25 25 27 29 27 23 19 18 18 17 19 20 18 20 26 27 25 25 26 28 29 29 30 31 31 31 31 31 30 30 29 29 28 27 26 25 25 25 24 22 22 23 24 24 25 24 23 24 25 26 27 30 30 27 23 20 19
16 17 18 18 18 18 19 20 22 24 27 28 29 30 29 28 27 27 26 27 29 31 30 26 22 21 20 21 21 18 19 23 24 24 24 23 24 26 27 29 31 31 31 32 32 31 31 31 31 30 29 28 27 26 26 26 25 25 25 25 25 25 25 23 22 23 24 25 28 30 30 28 26 24
15 16 16 16 17 18 19 19 20 20 22 24 28 30 31 32 32 30 30 30 30 32 34 31 28 26 23 21 21 20 19 20 21 20 19 19 21 22 24 27 29 30 31 32 32 32 32 32 32 32 31 30 30 28 28 27 27 27 27 26 26 26 25 25 24 24 24 24 25 27 28 28 28 29
13 14 15 15 16 18 19 19 19 19 19 20 22 25 27 30 32 32 33 33 32 34 36 36 34 31 29 27 25 22 20 19 17 15 16 18 19 19 19 22 25 27 29 30 32 32 33 33 33 33 33 32 32 31 30 30 29 29 29 29 28 28 27 27 26 25 26 25 25 26 27 27 28 30
12 12 12 12 13 16 17 17 17 18 18 19 20 21 22 23 26 28 30 31 32 33 35 37 37 35 33 30 24 20 18 17 17 18 19 19 18 16 17 18 19 21 25 27 30 31 33 33 33 34 34 34 33 33 32 32 31 31 30 30 30 30 29 29 28 27 27 27 27 27 27 27 28 30
10 9 9 9 10 11 13 14 15 16 17 18 20 20 21 22 23 24 25 26 27 29 31 33 34 35 33 29 23 19 18 19 21 21 21 19 15 13 13 14 14 16 20 24 27 29 31 32 33 33 34 34 34 34 33 33 33 33 32 31 31 31 31 31 30 30 29 29 29 29 28 28 28 30
9 9 9 10 10 11 11 11 12 14 15 17 18 19 19 20 21 22 23 23 23 25 27 28 30 31 32 30 27 26 26 27 24 19 19 20 17 12 12 13 12 13 16 19 22 25 27 30 31 32 33 34 34 35 35 35 34 34 34 33 32 32 33 32 32 32 31 31 30 29 30 29 29 29
10 10 11 12 12 13 13 12 12 12 13 15 17 18 18 19 20 21 22 22 21 22 24 26 27 27 29 31 31 30 29 27 22 19 20 21 18 15 15 13 11 12 13 15 18 21 23 25 28 29 31 33 33 34 35 36 36 35 35 35 34 33 33 33 33 33 33 33 32 31 30 30 30 30
9 10 12 12 13 14 14 15 14 14 14 15 16 16 16 18 19 21 23 23 22 21 22 24 25 27 30 32 32 31 27 24 22 20 20 20 19 18 17 13 11 9 9 11 14 16 18 21 24 26 29 31 31 33 35 36 37 36 35 35 35 35 34 34 34 34 34 34 34 33 33 32 32 32
9 10 12 12 12 13 14 15 15 15 15 16 15 15 16 17 17 18 20 22 22 21 22 22 22 25 29 30 30 29 26 22 21 20 19 20 19 17 16 13 10 6 4 6 9 12 15 17 20 23 26 28 29 32 33 34 35 36 36 36 36 36 35 34 34 34 34 34 34 34 35 35 35 34
10 11 12 12 13 13 13 13 14 15 15 15 16 16 17 19 20 20 20 19 19 20 21 22 22 23 24 24 25 24 23 21 19 19 20 19 18 18 17 15 10 7 3 4 6 9 12 14 17 21 23 25 27 30 31 32 33 35 36 36 36 36 36 35 35 34 34 34 34 34 35 36 36 36
12 14 14 13 13 12 12 13 13 13 14 14 16 17 18 20 23 24 25 24 23 22 22 24 26 24 22 21 19 17 18 20 20 19 17 16 16 16 14 12 9 7 6 8 9 10 11 12 15 18 20 21 23 26 29 30 32 34 34 35 35 35 35 35 34 34 34 34 34 35 35 36 36 37
13 14 13 12 12 13 13 14 13 12 11 11 13 15 17 18 18 20 24 26 27 28 29 30 29 26 24 22 18 15 15 17 17 15 14 13 14 13 11 11 11 9 10 12 13 14 13 13 14 16 17 18 21 23 25 27 29 31 32 33 34 34 34 34 34 34 34 35 35 35 35 36 36 36
12 11 10 9 11 12 13 13 12 12 11 10 11 12 14 15 15 16 17 19 23 26 30 32 31 28 25 22 18 15 14 15 14 14 14 13 14 14 13 15 13 10 10 11 13 15 13 11 14 15 13 15 19 21 22 24 26 28 29 31 32 32 32 33 33 33 33 34 34 34 35 35 35 36
11 10 9 8 9 10 10 10 10 10 11 11 12 13 13 13 15 16 14 14 16 20 24 28 28 25 22 19 16 13 13 14 13 13 14 14 13 14 14 14 13 10 10 9 10 13 13 10 12 14 11 13 15 17 19 21 23 25 27 29 30 31 32 32 32 32 32 32 33 34 34 35 35 35
12 11 11 10 10 11 11 12 13 13 14 15 16 16 16 16 17 17 14 12 13 15 16 20 22 23 21 18 15 13 13 13 12 13 14 12 11 15 18 18 17 14 11 8 7 12 12 10 11 12 11 11 13 13 15 17 20 23 26 28 30 30 31 31 32 32 32 32 33 33 34 35 35 35
16 14 13 12 13 13 11 11 12 14 16 18 19 18 18 18 19 18 15 14 15 15 15 15 18 20 21 20 19 17 16 17 17 20 20 17 17 22 24 24 23 21 16 10 9 12 12 9 9 10 9 10 10 9 10 13 18 22 24 27 29 29 30 30 31 32 33 33 33 34 34 34 34 34
18 15 13 14 15 13 10 10 11 11 14 17 20 19 19 20 20 17 15 15 15 16 17 17 17 18 18 19 19 18 16 17 20 23 24 24 26 27 27 26 25 24 19 11 8 9 9 5 6 7 7 9 8 6 7 10 14 18 21 23 25 27 27 28 29 30 31 32 33 34 34 34 34 33
19 17 15 15 15 14 13 14 13 13 15 18 20 22 23 25 23 20 17 17 16 15 14 14 15 15 15 15 16 16 16 17 19 20 22 24 26 26 26 26 25 24 21 14 10 10 8 6 8 8 7 9 8 5 5 8 9 11 15 17 19 21 23 24 26 28 29 31 32 33 34 34 34 34
17 16 16 16 16 17 19 17 13 11 14 15 17 20 23 25 24 22 21 20 18 17 16 16 15 14 14 14 16 17 18 19 19 19 19 20 21 22 23 23 23 24 22 18 15 14 13 12 12 11 8 8 8 6 6 8 7 7 10 12 14 16 17 20 22 24 26 28 29 31 33 34 34 35
18 17 17 18 20 22 22 18 14 11 12 13 15 18 19 20 21 22 23 23 21 19 19 19 18 17 16 17 18 19 21 21 20 19 19 19 20 20 20 20 22 23 22 19 17 16 16 16 14 12 9 9 8 7 8 8 6 6 7 9 11 13 14 16 18 20 21 23 25 27 29 31 33 35
23 21 20 21 24 25 20 16 13 12 13 15 18 20 20 21 20 20 21 23 24 23 21 21 21 21 20 20 20 20 21 21 20 18 18 18 20 22 22 22 23 24 23 21 19 19 17 16 15 12 11 11 10 8 9 9 6 4 5 6 8 9 12 14 16 18 19 20 21 23 25 28 30 32
26 26 24 25 26 23 17 14 14 15 17 19 18 19 21 23 24 23 22 21 22 22 23 24 24 24 23 23 23 22 21 20 20 19 18 17 17 20 23 25 25 25 24 22 21 19 17 16 16 14 12 13 12 10 11 11 9 6 5 6 6 7 10 13 15 16 17 18 19 20 22 25 27 29
27 27 27 26 25 20 16 17 19 21 22 21 17 16 17 19 22 24 25 24 24 24 24 24 24 25 25 24 23 22 21 21 21 20 19 18 17 18 22 25 27 27 26 24 23 21 19 18 18 16 15 16 17 17 15 14 12 9 8 9 9 8 10 12 14 15 16 17 17 18 20 22 24 26
27 27 25 24 22 20 20 22 23 24 23 19 17 17 17 17 19 21 23 25 27 28 28 26 25 24 23 22 22 22 24 25 26 24 22 21 20 19 20 24 26 27 27 27 26 23 21 20 18 17 17 19 21 22 21 18 15 12 10 10 10 9 9 11 12 14 15 15 16 17 18 20 22 24
29 27 24 23 23 23 23 23 24 24 22 18 16 16 16 17 19 19 21 22 24 26 28 29 29 28 27 27 27 26 25 25 25 24 23 23 24 22 21 22 25 26 26 27 27 26 24 22 20 19 19 19 21 22 21 19 16 14 12 12 11 11 10 11 12 13 13 13 14 14 14 16 19 22
29 26 24 24 25 24 23 23 24 23 19 15 14 13 12 13 14 15 17 18 20 22 24 26 28 28 27 27 26 24 23 22 21 20 19 20 22 24 24 23 24 25 25 25 25 25 25 24 23 21 20 20 20 20 17 17 17 17 15 13 13 13 12 11 12 13 12 12 13 13 12 12 12 15
28 27 26 26 26 25 24 24 23 20 16 14 13 11 10 9 10 11 12 14 16 18 20 22 24 25 24 24 23 22 22 21 20 19 18 18 19 22 25 25 24 24 25 25 25 24 24 25 24 22 21 20 20 19 17 18 20 20 17 14 14 13 12 11 11 11 11 11 12 12 12 11 11 12
27 27 27 28 28 26 24 22 19 17 15 14 12 10 10 9 9 9 10 11 12 14 16 18 20 22 23 25 25 25 24 22 20 19 19 19 18 19 22 25 25 24 24 24 24 23 23 24 24 23 22 21 21 20 20 21 22 22 18 15 14 13 11 10 11 10 9 10 11 11 10 10 11 12
24 25 26 27 26 24 21 19 17 16 16 15 13 11 11 11 11 10 11 11 11 11 12 13 14 15 17 20 22 23 23 23 23 22 22 21 20 19 20 22 25 26 26 25 24 23 22 23 24 24 22 21 21 21 22 23 23 22 19 16 14 13 12 11 10 11 11 12 11 10 10 9 9 9
21 23 24 25 23 21 20 20 18 17 17 17 15 14 13 12 12 12 11 12 12 12 13 14 14 13 13 13 15 17 18 20 21 22 22 23 22 20 19 19 22 25 27 26 25 23 21 21 24 24 21 20 21 23 24 24 23 21 18 16 15 14 12 11 12 13 13 11 10 8 8 8 8 8
23 22 22 22 21 20 21 21 19 18 18 18 17 16 14 13 13 14 13 12 12 13 14 16 17 17 16 17 18 19 19 19 20 20 21 22 22 21 20 19 20 23 25 25 24 22 20 20 22 22 20 19 22 24 24 23 22 19 17 16 16 15 13 12 14 15 14 11 9 8 7 6 7 7
23 23 22 21 21 22 23 21 19 17 18 19 18 16 14 13 14 14 13 12 12 11 12 13 14 16 17 18 18 17 16 16 17 18 19 19 20 20 20 20 20 22 23 23 22 20 17 18 21 21 20 20 22 24 23 22 21 19 17 16 16 16 15 14 16 17 15 12 10 8 7 7 6 6
21 22 22 22 22 23 22 21 19 17 18 19 16 14 13 13 13 13 12 12 11 11 10 10 10 10 11 12 13 13 14 15 16 17 18 20 19 18 18 19 20 21 22 22 21 18 17 19 21 21 21 21 21 21 21 19 18 16 15 16 17 17 17 17 19 19 16 14 11 9 8 7 6 6
18 20 21 22 21 21 21 21 19 18 17 16 14 12 12 11 11 12 12 12 11 10 10 10 9 7 7 8 10 12 13 14 13 14 16 18 19 17 17 18 20 21 21 21 20 19 18 19 20 20 19 19 20 19 18 18 17 15 14 14 16 17 18 19 20 20 17 14 12 10 9 7 7 7
19 20 21 20 20 20 21 20 19 17 16 14 13 13 12 11 11 11 11 11 11 10 10 10 10 9 7 6 7 9 11 11 11 11 12 15 17 17 16 17 20 22 22 21 21 20 20 19 19 18 18 18 20 20 20 19 18 16 14 14 14 15 17 19 20 19 17 15 13 11 9 8 8 9
19 19 19 19 20 21 21 19 17 17 16 14 13 13 12 12 11 11 11 11 11 10 10 10 10 11 9 7 6 8 9 11 11 10 10 13 16 17 17 17 19 20 20 19 20 19 17 17 18 18 18 19 20 22 22 21 18 15 14 15 14 13 16 19 19 18 18 17 15 12 10 9 9 10
18 18 19 20 21 21 20 18 17 16 15 13 13 12 12 11 11 10 10 11 10 9 9 9 10 11 11 9 8 8 10 12 13 13 11 11 14 16 17 17 18 18 19 19 19 17 14 15 15 16 17 19 19 20 21 21 18 16 16 16 15 14 15 18 19 19 20 19 17 13 11 10 10 11
18 19 20 20 19 19 17 17 16 15 14 12 12 11 11 10 9 9 10 10 9 9 9 9 10 11 12 10 9 9 10 12 14 15 13 11 12 15 16 16 17 18 18 18 18 16 14 14 15 14 16 17 18 19 20 20 19 19 18 18 17 16 16 17 18 18 19 19 16 13 12 11 11 11
19 19 19 18 17 16 16 15 14 13 12 11 11 10 9 9 8 9 9 9 9 9 9 9 9 9 10 9 9 8 10 11 13 15 15 13 12 13 14 15 17 18 16 15 16 16 16 16 15 15 15 17 18 19 20 20 20 20 20 19 18 17 16 16 16 17 18 17 15 13 13 12 12 12
Wind_Direction
261 261 262 263 264 264 263 262 260 257 255 255 255 254 253 258 267 274 279 277 275 275 274 278 279 264 256 258 257 257 258 257 257 256 253 253 252 247 241 238 236 233 233 235 232 227 227 228 224 220 220 221 220 220 221 226 234 240 241 236 231 227 225 223 210 197 192 197 205 211 211 211 212 211
262 262 262 262 261 261 259 257 254 249 248 249 248 248 247 248 252 259 269 271 268 264 263 264 258 242 240 249 254 255 256 255 256 257 255 252 252 252 246 241 238 235 234 235 236 233 228 227 226 224 221 219 218 217 217 222 227 233 240 244 243 240 236 236 238 236 221 205 204 208 210 210 213 214
263 263 262 261 259 258 256 252 248 243 242 243 241 241 241 240 243 250 260 267 266 259 256 258 257 252 249 251 256 260 261 261 260 259 258 254 251 252 250 246 242 239 238 237 237 236 233 230 228 227 226 222 219 217 219 221 222 225 232 240 247 248 245 242 242 244 244 236 220 210 210 212 214 215
262 262 261 261 258 256 254 251 248 244 240 238 236 237 238 237 240 243 250 260 263 258 256 261 263 261 258 258 262 266 269 270 268 264 260 257 253 251 250 249 246 242 240 239 239 238 236 235 233 231 229 226 223 219 218 219 219 218 221 230 241 248 249 250 250 248 248 249 245 233 220 213 212 215
263 264 263 262 260 256 253 251 249 247 244 243 242 242 242 241 242 246 250 257 263 264 261 262 265 265 264 264 266 270 274 274 273 270 267 261 255 252 250 249 248 246 243 241 241 240 238 237 237 235 233 231 229 225 223 221 217 218 221 225 233 240 243 249 253 253 251 251 250 248 241 230 221 218
266 266 266 265 264 259 255 252 250 248 246 246 245 245 245 244 245 249 252 257 262 264 263 261 264 266 264 265 268 271 274 276 277 275 271 264 258 254 251 249 248 247 246 244 242 241 240 239 238 238 237 236 233 230 228 226 221 221 225 226 229 233 235 237 243 248 251 251 250 249 248 247 244 236
271 270 269 268 266 263 260 256 254 251 249 247 247 247 247 246 247 248 250 254 259 263 264 263 263 265 264 267 271 273 274 278 278 274 270 267 262 257 253 250 248 246 247 247 245 243 242 241 240 240 240 239 238 235 232 231 228 228 229 229 230 234 235 232 232 238 242 244 247 250 250 250 252 249
276 276 275 272 268 265 263 261 259 256 253 251 249 249 249 248 249 249 249 251 255 260 263 264 263 264 265 268 270 273 276 278 278 274 271 268 265 259 255 252 249 247 247 248 247 246 244 243 242 242 242 241 240 239 238 236 235 233 232 233 233 233 236 235 231 231 234 236 239 245 250 251 252 251
281 283 282 278 272 266 263 262 262 261 259 257 255 253 252 252 252 252 252 252 252 255 258 262 264 265 266 267 269 273 274 273 271 266 263 263 265 263 256 252 250 247 245 246 247 247 246 245 244 243 243 243 242 241 241 240 239 236 234 235 235 234 235 235 234 231 231 231 231 234 241 245 246 247
280 285 289 287 278 269 265 263 262 262 262 261 260 259 258 257 255 255 254 254 253 254 256 259 262 264 265 266 268 268 263 259 258 260 264 266 265 266 263 254 249 247 245 243 243 245 246 246 246 245 244 245 245 244 243 243 243 242 239 237 237 237 236 235 236 234 232 230 229 230 232 234 237 239
275 283 296 302 299 289 280 271 265 262 261 261 261 261 261 260 259 257 256 256 255 254 256 257 259 260 261 262 261 257 253 256 260 263 272 275 269 266 267 258 245 239 240 240 240 241 243 245 246 246 246 245 246 245 245 244 244 244 244 241 239 239 239 238 237 236 236 233 231 230 231 231 232 233
275 283 294 301 305 306 303 293 278 266 260 260 261 260 259 258 256 255 255 255 256 255 255 256 257 258 258 257 256 256 258 263 263 264 274 280 278 274 273 265 247 232 230 234 235 235 237 241 243 245 246 246 246 246 246 246 245 245 246 245 244 242 242 242 241 239 239 237 235 233 232 233 233 232
279 291 297 298 297 295 295 294 289 278 266 260 260 260 261 260 257 255 253 253 255 256 256 256 256 256 256 255 254 256 259 263 266 270 275 277 279 285 284 268 239 225 225 225 228 230 231 234 237 240 244 245 246 246 246 246 247 246 246 247 247 246 245 245 245 244 243 242 240 238 235 234 235 234
287 297 295 293 290 286 282 279 280 281 276 267 264 261 257 256 256 254 251 251 253 254 257 259 258 256 255 254 254 256 260 263 266 269 271 274 281 291 289 263 220 214 227 223 221 223 223 226 230 233 238 241 243 245 246 246 247 247 247 248 248 249 249 248 247 248 248 247 245 243 240 238 236 235
293 296 289 281 274 271 272 272 271 275 275 271 270 267 260 257 257 255 251 250 253 258 262 264 264 262 261 259 257 258 261 264 264 265 270 276 282 287 286 266 228 203 219 227 221 211 205 214 223 225 230 234 237 242 244 245 246 247 247 248 249 249 250 250 250 250 249 250 249 248 246 243 241 239
296 300 295 278 261 258 265 268 266 267 269 268 267 265 260 256 258 263 264 260 257 258 262 268 271 271 271 269 263 258 258 261 263 267 269 273 278 279 278 268 236 195 202 255 245 220 209 216 225 223 224 228 231 237 241 242 244 246 246 247 248 249 250 250 251 251 251 251 251 251 250 248 247 245
299 304 302 280 254 248 257 260 259 260 264 267 265 260 256 250 248 253 260 266 270 270 269 270 273 276 280 278 269 260 260 262 264 266 266 270 276 274 271 269 246 221 245 267 266 253 235 232 238 232 228 229 231 234 237 240 243 246 246 247 247 248 249 249 249 250 251 251 251 251 252 251 251 250
282 292 294 275 251 245 250 252 252 254 259 263 262 260 260 260 254 248 246 249 257 264 269 271 273 276 277 277 275 272 269 263 258 258 261 267 276 277 280 289 280 252 252 266 271 263 242 234 250 249 237 235 236 236 238 239 241 243 245 247 247 247 248 248 248 249 250 251 252 252 252 252 252 252
261 273 280 272 257 254 255 255 252 252 253 258 263 263 265 270 272 267 256 247 242 245 253 261 268 273 272 270 271 268 261 253 246 250 261 266 275 282 282 287 283 258 251 266 270 265 252 247 261 260 245 240 239 236 238 239 239 240 241 242 244 245 246 247 247 248 248 249 250 251 251 252 252 252
248 256 267 275 269 264 263 260 256 252 251 253 257 262 268 270 272 272 274 270 256 243 243 249 259 269 272 269 265 254 248 244 239 250 266 267 272 278 278 285 286 270 262 268 267 268 267 262 262 261 254 250 245 239 239 238 236 236 235 234 237 239 242 244 244 245 246 246 247 248 250 251 251 251
243 249 262 279 285 280 270 258 253 254 258 259 258 260 263 262 262 264 267 268 265 257 251 251 255 263 269 270 267 259 251 247 246 259 267 262 265 275 281 288 291 285 277 273 271 276 273 259 260 266 265 259 253 247 243 236 231 231 229 228 230 232 234 237 239 241 242 243 244 245 246 249 251 251
243 248 259 275 284 284 280 270 259 253 255 260 263 264 263 259 259 261 259 255 256 257 257 257 255 256 259 261 261 258 251 247 251 259 264 265 270 276 281 285 290 291 284 270 269 277 270 260 270 276 271 265 257 246 237 228 224 225 226 225 226 227 228 231 233 235 237 239 241 242 244 246 248 249
246 250 258 272 281 285 294 300 289 267 255 259 265 270 273 272 273 277 273 264 260 255 252 253 254 255 256 256 257 256 250 245 246 249 253 260 265 270 274 278 281 281 274 261 267 272 261 263 290 286 271 266 265 258 236 217 213 217 222 224 226 228 229 231 233 235 237 238 240 241 243 244 246 247
248 252 255 265 272 272 276 289 291 273 258 258 264 269 273 275 279 285 285 279 276 271 261 254 253 256 258 259 261 261 258 256 253 248 248 253 255 257 261 264 266 267 265 261 267 270 263 269 288 295 282 259 254 248 208 191 192 203 211 217 223 226 229 232 234 237 239 240 241 242 242 243 244 244
240 246 252 255 256 257 266 283 297 281 261 260 262 264 269 273 276 279 279 277 276 276 273 270 266 262 258 255 254 254 253 252 252 251 249 249 250 251 251 252 256 260 263 262 259 262 268 272 279 293 292 260 248 243 214 200 198 198 200 208 214 216 221 227 230 233 236 238 240 242 242 243 243 243
232 239 246 249 253 258 268 286 301 290 273 271 268 264 267 270 271 271 271 271 273 272 271 272 271 268 264 261 256 250 246 244 244 245 245 243 245 246 245 244 245 250 257 260 260 262 267 271 275 281 278 267 264 260 245 231 215 197 199 204 206 209 216 221 225 228 232 235 238 241 243 244 244 244
237 238 242 246 253 262 275 289 288 274 272 274 267 262 259 258 257 258 258 260 263 265 265 265 266 265 265 266 264 255 248 244 243 244 246 244 244 244 243 242 243 247 251 255 259 262 262 263 265 262 258 264 269 265 258 252 240 225 223 215 211 217 222 224 226 229 231 235 239 242 245 247 247 247
241 240 241 246 256 269 281 280 264 265 281 287 277 264 257 254 253 253 252 252 253 256 258 259 261 262 262 263 266 263 254 247 244 244 245 245 245 245 244 243 245 249 251 250 252 255 253 254 258 253 243 247 254 257 258 258 258 260 253 243 240 237 233 233 235 235 236 239 242 246 248 250 251 251
245 244 243 250 260 268 266 257 259 274 289 293 284 271 262 257 255 254 253 252 250 250 251 253 254 258 261 263 267 268 265 261 258 253 248 245 246 248 246 244 244 247 249 249 248 249 247 249 254 254 245 241 242 245 249 253 259 264 264 264 262 248 241 245 245 244 246 247 247 251 254 254 253 253
240 243 247 252 256 253 251 256 268 282 290 288 277 269 266 264 262 260 257 254 250 248 248 248 248 251 254 256 258 262 266 268 267 264 259 255 253 252 249 246 244 245 247 248 247 247 246 247 249 252 251 247 244 243 245 249 256 261 263 268 269 261 255 255 252 252 254 255 257 260 260 258 256 253
237 244 250 252 249 248 255 265 274 282 287 282 271 266 264 262 261 262 260 257 254 251 249 248 249 249 251 254 256 258 260 262 262 262 261 258 254 251 249 245 243 243 245 246 246 245 244 244 245 247 250 250 250 248 244 244 251 258 260 264 270 271 267 263 262 263 263 264 268 270 269 265 258 252
238 243 246 247 248 252 258 265 274 281 283 274 264 263 264 261 260 259 257 255 255 254 252 250 250 250 252 254 255 254 254 255 258 259 259 256 252 248 244 241 241 242 243 244 244 243 241 240 242 244 247 249 252 251 244 240 245 251 254 260 267 269 269 269 271 271 270 275 281 282 284 284 270 255
236 239 241 244 248 252 256 262 272 277 270 259 260 267 271 274 273 267 260 256 254 254 254 253 251 250 248 247 248 250 250 251 253 253 253 253 251 246 241 238 238 239 242 244 244 242 240 239 239 241 244 245 246 244 238 238 243 244 246 255 265 268 271 275 277 278 278 280 286 289 291 294 289 276
234 237 240 243 247 251 257 264 271 268 255 246 250 261 271 281 285 278 268 263 259 255 254 254 253 252 250 248 248 250 252 252 250 248 248 250 250 246 242 239 238 237 240 244 246 242 238 236 236 239 241 241 240 237 234 236 242 242 241 249 259 263 266 270 273 277 274 271 273 276 276 280 284 281
235 237 239 242 246 251 256 260 264 260 249 241 242 249 259 270 279 279 273 268 265 262 258 256 255 253 253 252 251 251 252 253 250 249 249 249 249 249 246 241 238 236 238 243 247 245 238 233 232 235 238 236 234 234 234 236 240 240 239 242 250 252 253 256 260 262 260 258 257 255 255 260 265 266
232 235 238 240 243 247 249 253 259 257 246 239 241 246 251 259 269 275 275 271 267 264 261 258 255 252 251 250 249 249 250 250 248 247 245 244 246 250 250 243 237 236 238 241 246 247 242 234 229 231 234 232 228 228 233 238 240 240 240 240 241 242 243 246 249 249 248 247 244 244 251 251 248 252
227 229 231 235 240 242 243 250 259 258 245 240 242 244 247 253 258 262 269 272 268 264 261 258 256 254 252 251 253 255 253 248 245 243 241 241 244 245 243 240 236 235 237 239 243 247 244 233 226 226 229 228 224 223 231 239 239 238 241 242 239 237 236 239 242 239 234 229 225 231 245 247 244 255
227 228 231 236 239 238 241 251 258 253 245 243 243 245 250 255 253 253 259 267 269 268 264 259 257 255 254 254 258 259 250 241 240 240 236 236 240 240 239 239 236 232 232 235 241 244 236 222 219 223 227 228 225 224 230 235 233 232 238 242 238 234 233 236 238 232 224 218 218 222 234 243 250 267
226 228 231 233 232 232 240 251 254 249 246 247 247 248 254 255 253 251 255 262 269 271 269 265 263 260 254 251 253 254 247 239 239 239 232 228 231 236 242 243 234 225 226 233 237 237 225 214 216 222 225 227 229 229 232 235 234 236 243 242 235 231 231 233 233 226 217 214 218 224 233 245 256 271
219 219 219 221 224 230 242 251 252 247 246 246 246 249 250 249 250 252 254 258 263 265 267 269 266 261 260 256 253 253 248 235 231 235 232 225 224 230 240 240 228 219 223 233 235 229 218 214 218 222 224 228 232 234 237 239 239 241 242 233 227 228 230 229 225 220 216 217 220 225 237 255 269 279
212 214 216 220 226 235 246 251 248 241 238 239 242 246 247 246 249 251 252 254 257 258 261 265 261 257 259 263 261 259 245 225 223 237 236 223 220 223 228 228 223 222 227 234 232 225 220 220 223 225 227 232 233 231 232 234 234 233 230 223 221 227 229 223 216 212 216 221 224 228 240 259 275 282
218 223 227 230 234 241 248 248 238 231 232 236 240 243 247 249 250 249 249 251 253 252 253 258 264 265 264 263 267 264 243 223 222 230 225 216 215 218 219 222 226 228 229 228 227 227 226 226 225 222 224 229 230 229 230 232 232 231 230 228 228 229 224 216 211 211 215 218 221 228 242 259 276 284
227 231 234 235 239 244 245 236 225 224 230 235 238 242 248 251 249 247 247 247 250 251 249 250 259 267 269 267 263 256 240 227 222 220 217 217 219 219 219 223 226 225 221 221 224 228 226 223 222 219 218 222 226 229 231 233 233 234 236 236 235 233 224 215 213 216 220 220 220 227 241 257 272 279
232 234 236 237 239 238 229 218 216 221 228 232 236 241 246 247 246 244 244 245 248 250 248 244 246 253 261 263 258 248 236 226 221 216 215 219 224 222 219 217 217 219 221 222 223 222 219 217 217 214 212 215 221 226 230 230 230 232 236 237 236 235 230 222 217 219 221 221 221 227 240 255 267 269
234 235 236 236 232 221 211 208 212 218 223 228 234 238 241 242 242 240 240 242 244 245 245 243 239 242 250 257 256 247 235 227 222 218 216 218 223 224 218 211 208 210 212 210 209 211 210 208 207 207 211 215 219 223 227 228 229 230 231 230 229 230 230 226 222 220 220 219 219 225 237 251 260 259